Location: Sawyer Lake
(45.2517°N, 88.7550°W)
Time: 00:44:54
(UTC-05:00)

Daily predictions for brighter satellites

Satellite Brightness Start Highest point End
(mag) Time Altitude Azimuth Time Altitude Azimuth Time Altitude Azimuth
SeaSat 1 3.5 00:05:37 41° NNE 00:05:37 41° NNE 00:09:31 10° NNW
Cosmos 2100 Rocket 4.1 00:16:43 71° WNW 00:16:43 71° WNW 00:22:53 10° N
ALOS 2 4.2 00:19:05 32° N 00:19:05 32° N 00:21:30 10° N
Cosmos 1802 Rocket 4.0 00:18:37 73° N 00:18:37 73° N 00:24:13 10° N
ATLAS 5 CENTAUR R/B 3.4 00:12:59 10° NW 00:17:13 37° W 00:17:13 37° W
Cosmos 2061 Rocket 4.1 00:19:25 78° N 00:19:25 78° N 00:25:28 10° N
Mayak 0.8 00:41:04 10° N 00:43:03 27° N 00:43:03 27° N
Cosmos 1725 Rocket 4.2 00:55:52 67° NNW 00:55:52 67° NNW 01:01:22 10° N
USA 267 4.2 00:50:46 10° NE 00:56:52 43° NNW 01:02:57 10° W
Cosmos 1943 Rocket 4.4 00:57:20 10° WNW 00:58:56 14° WNW 00:58:56 14° WNW
Cosmos 968 Rocket 4.4 00:59:29 10° NNW 01:03:13 46° N 01:03:13 46° N
Lacrosse 4 Rocket 3.8 01:05:43 10° N 01:09:00 20° NE 01:09:18 20° NE
ADEOS Rocket 3.2 01:12:39 10° N 01:19:22 70° WNW 01:19:22 70° WNW
Cosmos 2278 4.3 01:31:27 10° NNW 01:36:57 50° ENE 01:37:03 50° ENE
Cosmos 1980 Rocket 4.1 01:33:21 10° N 01:37:55 25° NE 01:41:39 13° E
COSMOS 2406 3.6 01:39:18 59° NNW 01:39:18 59° NNW 01:44:12 10° NNE
Cosmos 1697 Rocket 3.8 01:34:53 10° NNW 01:40:12 39° NE 01:41:19 36° E
BREEZE-M R/B 4.2 01:47:27 63° W 01:48:27 77° NNW 01:54:18 10° ENE
Cosmos 2082 Rocket 3.3 01:52:26 34° E 01:52:26 34° E 01:56:50 10° NE
Cosmos 2034 Rocket 4.2 01:52:20 63° E 01:52:20 63° E 01:58:29 10° NNE
Cosmos 909 Rocket 4.1 01:49:39 10° NNW 01:55:58 75° NE 01:56:37 68° ESE
Meteor 2-20 Rocket 4.4 01:50:28 10° N 01:56:04 76° NNW 01:56:04 76° NNW
Resurs 1-4 Rocket 3.9 01:54:27 10° NE 01:58:21 21° E 01:58:45 20° E
Cosmos 1656 3.9 01:56:29 10° NNW 02:01:35 70° N 02:01:35 70° N
Meteor 1-19 Rocket 4.4 02:02:58 69° NNW 02:02:58 69° NNW 02:08:11 10° N
CZ-4B R/B 4.2 02:08:59 17° N 02:08:59 17° N 02:09:56 10° N
Cosmos 967 Rocket 4.4 02:02:25 10° NW 02:08:48 86° WNW 02:08:48 86° WNW
NPP 4.4 02:10:27 10° NNE 02:15:34 42° E 02:15:38 42° E
Cosmos 332 Rocket 4.4 02:18:05 53° NE 02:18:05 53° NE 02:21:50 10° NNE
Cosmos 371 Rocket 3.9 02:18:21 53° NE 02:18:21 53° NE 02:22:13 10° NNE
Cosmos 1464 Rocket 4.1 02:19:17 63° WNW 02:19:17 63° WNW 02:25:30 10° N
H-2A R/B 4.0 02:16:49 10° NNE 02:19:59 32° ENE 02:19:59 32° ENE
Cosmos 1340 Rocket 4.4 02:23:06 33° NE 02:23:06 33° NE 02:25:28 10° NNE
Cosmos 1833 Rocket 2.7 02:25:13 71° E 02:25:13 71° E 02:30:39 10° NNE
SL-16 R/B 3.0 02:22:56 38° SE 02:25:10 57° ENE 02:31:18 10° N
Meteor 1-15 Rocket 4.3 02:19:56 10° N 02:25:54 77° ENE 02:26:20 73° ESE
MOS 1 Rocket 4.1 02:23:24 10° N 02:27:02 46° NNW 02:27:02 46° NNW
Cosmos 2369 4.2 02:23:44 10° NNW 02:27:56 47° WNW 02:27:56 47° WNW
ARIANE 5 R/B 4.0 02:32:44 10° NE 02:37:14 28° E 02:38:33 25° ESE
Nadezhda 4 Rocket 3.8 02:31:31 10° NNW 02:37:38 70° W 02:37:47 70° WSW
Cosmos 1867 4.2 02:38:25 10° NW 02:42:14 43° WNW 02:42:14 43° WNW
Lacrosse 4 Rocket 3.3 02:43:42 10° NW 02:45:34 24° NW 02:45:34 24° NW
Cosmos 304 Rocket 4.3 02:49:20 50° ESE 02:49:22 50° ESE 02:54:03 10° NNE
Cosmos 1634 Rocket 4.0 02:50:23 54° SSE 02:51:47 74° E 02:58:04 10° NNE
Cosmos 2360 4.2 02:46:21 10° NNW 02:52:04 78° ENE 02:53:52 45° SE
Cosmos 1025 Rocket 3.3 02:56:17 65° NE 02:56:17 65° NE 03:00:02 10° NNE
MOZ.5/SAFIR/RUBIN 5/SL-8 4.1 03:01:22 49° SE 03:02:26 63° ENE 03:07:09 10° N
Cosmos 2279 Rocket 4.5 03:01:16 33° SSE 03:03:55 55° E 03:10:01 10° NNE
IRS-1D 3.8 03:00:37 10° NNE 03:05:47 65° ESE 03:06:52 52° SSE
Lacrosse 5 rocket 1.9 03:06:16 55° NNW 03:06:16 55° NNW 03:10:05 10° NE
CZ-2D R/B 2.1 03:00:56 10° NNE 03:06:21 78° ESE 03:07:18 60° S
Cosmos 1066 Rocket 4.2 03:05:29 54° SSE 03:06:39 71° E 03:12:03 10° NNE
Cosmos 2026 Rocket 3.9 03:04:07 10° N 03:10:32 89° W 03:12:54 42° S
Cosmos 1356 Rocket 3.6 03:13:29 64° E 03:13:29 64° E 03:17:28 10° NNE
IRS P6 4.5 03:13:02 10° NNE 03:18:19 88° WNW 03:19:24 58° SSW
UNK 4.0 03:19:16 51° WNW 03:19:16 51° WNW 03:23:14 10° NNW
PSLV R/B 4.0 03:20:14 63° NW 03:20:14 63° NW 03:23:48 10° NNW
Okean 2 4.1 03:21:31 41° NW 03:21:31 41° NW 03:24:49 10° N
ADEOS II 3.9 03:17:05 10° NE 03:21:24 25° E 03:25:40 10° SSE
ATLAS 3B R/B 3.7 03:17:59 24° SSE 03:21:29 39° ESE 03:27:50 10° NE
IRS-1C 4.0 03:16:33 10° NNE 03:21:55 79° WNW 03:23:04 56° SW
SL-08 R/B 3.7 03:22:24 48° W 03:22:24 48° W 03:26:46 10° NNW
Cosmos 1980 Rocket 2.1 03:16:49 10° NNW 03:22:21 62° WSW 03:23:20 53° SSW
Cosmos 1697 Rocket 3.6 03:19:00 10° NW 03:23:01 32° W 03:23:01 32° W
Helios 1A Rocket 3.4 03:26:28 10° NNE 03:30:35 55° E 03:31:37 42° SSE
Cosmos 44 3.6 03:26:26 10° NNW 03:31:39 75° NE 03:37:02 10° SE
Cosmos 1544 3.5 03:28:44 10° NNW 03:31:41 52° NW 03:31:41 52° NW
ERS-1 4.3 03:29:54 10° NNE 03:34:53 81° WNW 03:36:13 50° SSW
Cosmos 2082 Rocket 3.0 03:34:17 33° W 03:35:46 38° NW 03:41:03 10° NNE
SL-16 R/B 2.6 03:31:12 10° NNW 03:36:51 63° ENE 03:42:28 10° SE
Cosmos 1763 Rocket 3.8 03:35:12 35° S 03:37:18 63° ESE 03:42:35 10° NNE
CZ-2D R/B 4.1 03:33:43 10° NNE 03:37:43 50° E 03:39:14 33° SSE
Resurs 1-4 Rocket 2.3 03:33:23 10° N 03:38:32 56° WNW 03:39:50 44° WSW
Timation 2 Rocket 4.2 03:37:33 30° S 03:40:29 59° ESE 03:46:21 10° NE
AQUA 4.4 03:36:12 10° N 03:40:41 41° WNW 03:41:22 39° W
UNKNOWN OBJECT B 3.1 03:40:39 10° NNE 03:44:28 58° E 03:45:35 40° SSE
COSMOS 2487 3.4 03:45:12 35° NW 03:45:12 35° NW 03:48:08 10° N
Transit 2A Rocket 4.4 03:40:33 10° NW 03:45:06 72° WSW 03:47:34 25° SSE
Cosmos 2266 Rocket 4.4 03:40:01 10° N 03:46:02 61° ENE 03:52:07 10° SSE
Cosmos 1726 Rocket 3.5 03:46:23 10° NNW 03:50:39 60° W 03:51:31 49° SW
Cosmos 2322 Rocket 2.3 03:45:59 10° NNW 03:51:40 77° ENE 03:57:16 10° SSE
Cosmos 1655 Rocket 4.0 03:46:04 10° NNW 03:52:22 65° W 03:56:25 23° SSW
Cosmos 1898 Rocket 3.7 03:48:56 10° NNW 03:53:53 46° WSW 03:55:21 36° SW
Cosmos 2208 Rocket 4.5 03:54:18 34° WSW 03:55:58 46° WNW 04:01:02 10° N
H-2A R/B 3.9 03:52:40 10° NNW 03:56:08 24° WNW 03:56:35 24° WNW
Meteor 1-22 Rocket 4.3 03:50:38 10° NNW 03:56:31 62° W 03:59:55 24° SSW
Iridium 4 Rocket 4.4 03:57:33 24° WNW 03:57:34 24° WNW 04:01:16 10° NNW
deb Kosmos-1763 4.1 04:01:08 42° S 04:02:19 78° ESE 04:06:05 10° NNE
Cosmos 1937 Rocket 3.5 03:57:31 10° NNW 04:02:35 53° WSW 04:05:51 21° S
Cosmos 44 Rocket 3.3 03:59:50 10° NW 04:04:59 87° WSW 04:10:11 10° SSE
Cosmos 1842 3.2 04:06:52 37° SSW 04:08:18 73° W 04:12:18 10° N
SL-16 R/B 3.5 04:08:01 25° WSW 04:09:07 26° W 04:14:17 10° NW
Cosmos 1833 Rocket 4.3 04:06:54 16° W 04:09:32 22° NW 04:13:52 10° N
Cosmos 2228 3.3 04:08:01 10° NNW 04:12:07 45° W 04:13:35 32° SW
Cosmos 2058 Rocket 3.3 04:10:24 10° NNW 04:14:40 48° W 04:16:44 27° SSW
Cosmos 1602 Rocket 4.0 04:11:21 13° S 04:15:06 59° E 04:19:22 10° NNE
BREEZE-M R/B 2.9 04:14:07 37° SW 04:15:23 74° SSE 04:21:11 10° ENE
Cosmos 990 Rocket 4.4 04:11:09 10° NW 04:15:58 41° WSW 04:19:09 19° SSW
ARIANE 5 R/B 3.2 04:11:34 10° N 04:16:27 41° WNW 04:18:54 25° WSW
USA 267 4.5 04:14:56 10° E 04:21:00 42° NNE 04:27:04 10° NW
Cosmos 1805 3.6 04:18:06 10° NNW 04:21:48 42° W 04:23:18 28° SW
ATLAS CENTAUR R/B 2.6 04:19:34 10° NNW 04:23:49 48° NE 04:28:17 10° SE
Cosmos 372 Rocket 4.3 04:20:52 10° NNW 04:26:06 70° ENE 04:31:16 10° SSE
USA 238 DEB 3.7 04:21:57 21° SW 04:26:46 81° NW 04:33:47 10° NE
USA 238 3.7 04:22:02 21° SW 04:26:51 82° NW 04:33:53 10° NE
Cosmos 1626 Rocket 3.5 04:23:38 16° S 04:27:06 89° ENE 04:31:27 10° N
Cosmos 1814 Rocket 4.3 04:24:21 24° SW 04:27:16 52° WNW 04:32:21 10° NNE
Cosmos 1953 2.3 04:24:58 10° N 04:29:05 89° ESE 04:33:08 10° S
SJ 16-02 1.4 04:25:15 10° NNW 04:29:42 79° ENE 04:34:07 10° SSE
Cosmos 1766 4.5 04:27:23 10° NW 04:30:28 23° W 04:30:53 22° W
Gblst 52 Del rocket 4.4 04:27:11 10° WNW 04:33:05 85° SSW 04:39:49 10° SE
Cosmos 2322 4.4 04:30:06 10° NNW 04:35:47 58° ENE 04:41:24 10° SE
CZ-2D R/B 3.9 04:42:20 10° NNW 04:45:45 17° WNW 04:48:38 12° W
Lacrosse 5 rocket 3.5 04:42:53 10° WNW 04:45:56 19° NNW 04:48:52 10° NNE
Cosmos 1733 3.7 04:50:08 10° NNW 04:53:47 40° W 04:57:25 10° SSW
Cosmos 841 Rocket 4.0 04:49:57 15° SW 04:53:52 42° WNW 04:58:50 10° N
Cosmos 292 Rocket 4.2 04:51:33 14° SW 04:55:26 48° WNW 05:00:06 10° N
Cosmos 1758 4.1 04:52:26 10° NNW 04:56:00 32° W 04:59:33 10° SSW
NOSS 3-3 (A) 4.5 04:51:48 10° NW 04:59:17 73° WSW 05:07:23 10° SSE
NOSS 3-3 (C) 4.5 04:51:55 10° NW 04:59:23 74° WSW 05:07:29 10° SSE
ADEOS II 2.5 04:56:19 10° N 05:01:19 45° WNW 05:06:17 10° SW
NOSS 3-2 (C) 3.6 04:57:53 10° SSW 05:03:50 83° SE 05:10:30 10° NE
Cosmos 2360 Rocket 2.2 04:58:18 10° NNW 05:03:53 67° WSW 05:09:26 10° SSE
Cosmos 1553 Rocket 4.5 04:59:17 10° S 05:05:38 68° E 05:11:59 10° NNE
Cosmos 540 Rocket 3.7 05:00:39 10° SW 05:05:41 55° WNW 05:10:47 10° NNE
Meteor 2-5 Rocket 4.2 05:01:29 10° S 05:06:57 65° E 05:12:30 10° NNE
Cosmos-2242 4.4 05:02:54 10° N 05:07:00 43° ENE 05:11:04 10° SSE
ATLAS 3B R/B 3.1 05:05:14 11° WSW 05:12:03 54° NW 05:18:47 10° NNE
Okean O Rocket 2.1 05:12:48 10° NNE 05:17:09 62° ESE 05:21:26 10° S
Cosmos 1825 Rocket 3.5 05:12:56 10° S 05:17:15 84° W 05:21:36 10° N
NOSS 3-2 (A) 3.7 05:14:10 10° SW 05:20:05 62° NW 05:26:46 10° NE
SL-16 R/B 3.4 05:16:18 10° NW 05:20:26 21° W 05:24:32 10° SSW
Cosmos 2333 Rocket 3.5 05:15:52 10° NNW 05:21:20 48° ENE 05:26:48 10° SE
PSLV R/B 4.4 05:21:07 10° SW 05:23:42 27° SSE 05:26:19 10° ESE
Cosmos 1470 3.9 05:21:58 10° NW 05:25:13 24° W 05:28:27 10° SW
COSMOS 2428 2.9 05:20:56 10° NNW 05:26:40 81° ENE 05:32:21 10° SSE
Cosmos 2333 4.3 05:21:21 10° NNW 05:27:00 85° ENE 05:32:38 10° SSE
USA 215 3.4 05:21:24 10° NE 05:27:59 88° NW 05:34:32 10° SW
